Time,TemperatureF,DewpointF,PressureIn,WindDirection,WindDirectionDegrees,WindSpeedMPH,WindSpeedGustMPH,Humidity,HourlyPrecipIn,Conditions,Clouds,dailyrainin,SoftwareType,DateUTC
2013-03-01 00:01:00,70.0,59.0,30.19,NE,40,21.0,28.0,68,-99.99,,,-99.99,,2013-03-01 10:01:00,
2013-03-01 00:11:00,68.0,59.0,30.19,NNE,30,17.0,29.0,72,-99.99,,,-99.99,,2013-03-01 10:11:00,
2013-03-01 00:21:00,68.0,59.0,30.19,NE,40,15.0,28.0,72,-99.99,,,-99.99,,2013-03-01 10:21:00,
2013-03-01 00:31:00,68.0,59.0,30.18,NE,40,27.0,28.0,72,-99.99,,,-99.99,,2013-03-01 10:31:00,
2013-03-01 00:41:00,68.0,59.0,30.17,NNE,30,13.0,28.0,72,-99.99,,,-99.99,,2013-03-01 10:41:00,
2013-03-01 00:51:00,68.0,59.0,30.18,NNE,30,17.0,25.0,72,-99.99,,,-99.99,,2013-03-01 10:51:00,
2013-03-01 01:01:00,68.0,59.0,30.18,NNE,30,17.0,25.0,72,-99.99,,,-99.99,,2013-03-01 11:01:00,
2013-03-01 01:11:00,68.0,59.0,30.17,ENE,60,25.0,31.0,72,-99.99,,,-99.99,,2013-03-01 11:11:00,
2013-03-01 01:22:00,68.0,59.0,30.16,NE,40,24.0,35.0,72,-99.99,,,-99.99,,2013-03-01 11:22:00,
2013-03-01 01:31:00,68.0,59.0,30.16,NE,40,27.0,33.0,72,-99.99,,,-99.99,,2013-03-01 11:31:00,
2013-03-01 01:41:00,68.0,59.0,30.16,NNE,30,22.0,31.0,72,-99.99,,,-99.99,,2013-03-01 11:41:00,
2013-03-01 01:52:00,68.0,59.0,30.15,NNE,20,25.0,31.0,72,-99.99,,,-99.99,,2013-03-01 11:52:00,
2013-03-01 02:01:00,68.0,59.0,30.15,NNE,20,25.0,31.0,72,-99.99,,,-99.99,,2013-03-01 12:01:00,
2013-03-01 02:11:00,68.0,59.0,30.15,NNE,20,23.0,32.0,72,-99.99,,,-99.99,,2013-03-01 12:11:00,
2013-03-01 02:21:00,68.0,57.0,30.14,NE,40,30.0,32.0,68,-99.99,,,-99.99,,2013-03-01 12:21:00,
2013-03-01 02:32:00,68.0,59.0,30.14,NE,40,20.0,38.0,72,-99.99,,,-99.99,,2013-03-01 12:32:00,
2013-03-01 02:41:00,68.0,57.0,30.13,NNE,30,20.0,29.0,68,-99.99,,,-99.99,,2013-03-01 12:41:00,
2013-03-01 02:52:00,68.0,57.0,30.13,NNE,30,16.0,32.0,68,-99.99,,,-99.99,,2013-03-01 12:52:00,
2013-03-01 03:01:00,68.0,57.0,30.13,NNE,30,16.0,32.0,68,-99.99,,,-99.99,,2013-03-01 13:01:00,
2013-03-01 03:11:00,68.0,57.0,30.13,NNE,30,25.0,36.0,68,-99.99,,,-99.99,,2013-03-01 13:11:00,
2013-03-01 03:21:00,68.0,57.0,30.13,NE,40,22.0,30.0,68,-99.99,,,-99.99,,2013-03-01 13:21:00,
2013-03-01 03:32:00,68.0,57.0,30.13,NNE,20,24.0,32.0,68,-99.99,,,-99.99,,2013-03-01 13:32:00,
2013-03-01 03:41:00,68.0,55.0,30.13,NNE,20,17.0,29.0,64,-99.99,,,-99.99,,2013-03-01 13:41:00,
2013-03-01 03:51:00,68.0,55.0,30.12,NE,40,17.0,27.0,64,-99.99,,,-99.99,,2013-03-01 13:51:00,
2013-03-01 04:01:00,68.0,55.0,30.12,NE,40,17.0,27.0,64,-99.99,,,-99.99,,2013-03-01 14:01:00,
2013-03-01 04:11:00,68.0,57.0,30.12,NNE,20,20.0,27.0,68,-99.99,,,-99.99,,2013-03-01 14:11:00,
2013-03-01 04:21:00,68.0,55.0,30.12,NNE,30,16.0,24.0,64,-99.99,,,-99.99,,2013-03-01 14:21:00,
2013-03-01 04:31:00,68.0,55.0,30.11,NE,40,17.0,27.0,64,-99.99,,,-99.99,,2013-03-01 14:31:00,
2013-03-01 04:41:00,68.0,55.0,30.11,NNE,30,21.0,27.0,64,-99.99,,,-99.99,,2013-03-01 14:41:00,
2013-03-01 04:52:00,68.0,55.0,30.11,NNE,30,21.0,29.0,64,-99.99,,,-99.99,,2013-03-01 14:52:00,
2013-03-01 05:01:00,68.0,55.0,30.11,NNE,30,21.0,29.0,64,-99.99,,,-99.99,,2013-03-01 15:01:00,
2013-03-01 05:11:00,68.0,55.0,30.11,NNE,30,10.0,27.0,64,-99.99,,,-99.99,,2013-03-01 15:11:00,
2013-03-01 05:21:00,68.0,55.0,30.11,NE,50,14.0,23.0,64,-99.99,,,-99.99,,2013-03-01 15:21:00,
2013-03-01 05:31:00,68.0,55.0,30.11,NE,50,23.0,27.0,64,-99.99,,,-99.99,,2013-03-01 15:31:00,
2013-03-01 05:42:00,68.0,55.0,30.11,NNE,30,7.0,27.0,64,-99.99,,,-99.99,,2013-03-01 15:42:00,
2013-03-01 05:51:00,68.0,55.0,30.11,North,10,10.0,28.0,64,-99.99,,,-99.99,,2013-03-01 15:51:00,
2013-03-01 06:01:00,68.0,55.0,30.11,North,10,10.0,28.0,64,-99.99,,,-99.99,,2013-03-01 16:01:00,
2013-03-01 06:11:00,68.0,55.0,30.11,NE,50,13.0,31.0,64,-99.99,,,-99.99,,2013-03-01 16:11:00,
2013-03-01 06:21:00,68.0,57.0,30.11,ENE,70,13.0,28.0,68,0.00,,,-99.99,,2013-03-01 16:21:00,
2013-03-01 06:31:00,68.0,57.0,30.12,NE,50,15.0,27.0,68,0.00,,,-99.99,,2013-03-01 16:31:00,
2013-03-01 06:41:00,68.0,57.0,30.11,NE,40,16.0,27.0,68,0.00,,,-99.99,,2013-03-01 16:41:00,
2013-03-01 06:51:00,68.0,57.0,30.12,NE,40,16.0,24.0,68,0.00,,,-99.99,,2013-03-01 16:51:00,
2013-03-01 07:01:00,68.0,57.0,30.12,NE,40,16.0,24.0,68,0.00,,,-99.99,,2013-03-01 17:01:00,
2013-03-01 07:11:00,68.0,57.0,30.12,NE,50,22.0,27.0,68,0.00,,,-99.99,,2013-03-01 17:11:00,
2013-03-01 07:21:00,68.0,59.0,30.12,NE,40,14.0,27.0,72,0.00,,,-99.99,,2013-03-01 17:21:00,
2013-03-01 07:31:00,68.0,59.0,30.12,NNE,30,18.0,24.0,72,0.00,,,-99.99,,2013-03-01 17:31:00,
2013-03-01 07:41:00,68.0,59.0,30.12,NNE,30,27.0,31.0,72,0.00,,,-99.99,,2013-03-01 17:41:00,
2013-03-01 07:51:00,66.0,59.0,30.13,NE,40,13.0,29.0,77,0.00,,,-99.99,,2013-03-01 17:51:00,
2013-03-01 08:01:00,66.0,59.0,30.13,NE,40,13.0,29.0,77,-99.99,,,-99.99,,2013-03-01 18:01:00,
2013-03-01 08:11:00,68.0,59.0,30.13,NNE,20,16.0,21.0,72,0.00,,,-99.99,,2013-03-01 18:11:00,
2013-03-01 08:21:00,68.0,61.0,30.14,ENE,60,13.0,24.0,77,0.00,,,-99.99,,2013-03-01 18:21:00,
2013-03-01 08:31:00,68.0,59.0,30.14,NE,50,13.0,25.0,72,0.00,,,-99.99,,2013-03-01 18:31:00,
2013-03-01 08:41:00,70.0,61.0,30.14,NE,50,20.0,24.0,73,0.00,,,-99.99,,2013-03-01 18:41:00,
2013-03-01 08:51:00,70.0,59.0,30.14,NE,50,18.0,24.0,68,0.00,,,-99.99,,2013-03-01 18:51:00,
2013-03-01 09:01:00,70.0,59.0,30.14,NE,50,18.0,24.0,68,-99.99,,,-99.99,,2013-03-01 19:01:00,
2013-03-01 09:11:00,72.0,59.0,30.15,NE,50,25.0,30.0,64,0.00,,,-99.99,,2013-03-01 19:11:00,
2013-03-01 09:21:00,72.0,59.0,30.16,ENE,60,20.0,30.0,64,0.00,,,-99.99,,2013-03-01 19:21:00,
2013-03-01 09:31:00,72.0,59.0,30.16,NNE,20,16.0,28.0,64,0.00,,,-99.99,,2013-03-01 19:31:00,
2013-03-01 09:41:00,72.0,59.0,30.16,NE,40,27.0,30.0,64,0.00,,,-99.99,,2013-03-01 19:41:00,
2013-03-01 09:51:00,72.0,59.0,30.16,NNE,30,18.0,30.0,64,0.00,,,-99.99,,2013-03-01 19:51:00,
2013-03-01 10:01:00,72.0,59.0,30.16,NNE,30,18.0,30.0,64,-99.99,,,-99.99,,2013-03-01 20:01:00,
2013-03-01 10:11:00,72.0,59.0,30.17,ENE,60,28.0,29.0,64,0.00,,,-99.99,,2013-03-01 20:11:00,
2013-03-01 10:21:00,73.0,59.0,30.17,ENE,60,14.0,29.0,60,0.00,,,-99.99,,2013-03-01 20:21:00,
2013-03-01 10:31:00,72.0,57.0,30.17,ENE,70,16.0,33.0,60,0.00,,,-99.99,,2013-03-01 20:31:00,
2013-03-01 10:41:00,73.0,59.0,30.18,NE,40,18.0,33.0,60,0.00,,,-99.99,,2013-03-01 20:41:00,
2013-03-01 10:51:00,73.0,57.0,30.17,NNE,30,22.0,29.0,56,0.00,,,-99.99,,2013-03-01 20:51:00,
2013-03-01 11:01:00,73.0,57.0,30.17,NNE,30,22.0,29.0,56,-99.99,,,-99.99,,2013-03-01 21:01:00,
2013-03-01 11:11:00,72.0,59.0,30.16,NNE,30,21.0,30.0,64,-99.99,,,-99.99,,2013-03-01 21:11:00,
2013-03-01 11:21:00,72.0,59.0,30.16,NE,40,24.0,36.0,64,-99.99,,,-99.99,,2013-03-01 21:21:00,
2013-03-01 11:31:00,73.0,59.0,30.16,NE,40,24.0,29.0,60,-99.99,,,-99.99,,2013-03-01 21:31:00,
2013-03-01 11:41:00,73.0,59.0,30.16,NE,50,20.0,29.0,60,-99.99,,,-99.99,,2013-03-01 21:41:00,
2013-03-01 11:51:00,73.0,59.0,30.16,NE,40,23.0,32.0,60,-99.99,,,-99.99,,2013-03-01 21:51:00,
2013-03-01 12:01:00,73.0,59.0,30.16,NE,40,23.0,32.0,60,-99.99,,,-99.99,,2013-03-01 22:01:00,
2013-03-01 12:11:00,73.0,59.0,30.16,NE,40,14.0,32.0,60,0.00,,,-99.99,,2013-03-01 22:11:00,
2013-03-01 12:21:00,73.0,59.0,30.16,NNE,30,21.0,31.0,60,0.00,,,-99.99,,2013-03-01 22:21:00,
2013-03-01 12:31:00,72.0,61.0,30.17,ENE,70,22.0,33.0,68,0.00,,,-99.99,,2013-03-01 22:31:00,
2013-03-01 12:41:00,70.0,59.0,30.17,NE,50,16.0,33.0,68,0.00,,,-99.99,,2013-03-01 22:41:00,
2013-03-01 12:51:00,72.0,61.0,30.16,NNE,20,12.0,23.0,68,0.00,,,-99.99,,2013-03-01 22:51:00,
2013-03-01 13:01:00,72.0,61.0,30.16,NNE,20,12.0,23.0,68,-99.99,,,-99.99,,2013-03-01 23:01:00,
2013-03-01 13:11:00,73.0,59.0,30.15,ENE,70,20.0,28.0,60,-99.99,,,-99.99,,2013-03-01 23:11:00,
2013-03-01 13:21:00,73.0,59.0,30.14,NE,40,16.0,29.0,60,-99.99,,,-99.99,,2013-03-01 23:21:00,
2013-03-01 13:31:00,73.0,57.0,30.14,NNE,30,21.0,31.0,56,-99.99,,,-99.99,,2013-03-01 23:31:00,
2013-03-01 13:41:00,75.0,57.0,30.14,NNE,30,21.0,35.0,53,-99.99,,,-99.99,,2013-03-01 23:41:00,
2013-03-01 13:51:00,73.0,59.0,30.14,NNE,20,15.0,24.0,60,-99.99,,,-99.99,,2013-03-01 23:51:00,
2013-03-01 14:01:00,73.0,59.0,30.14,NNE,20,15.0,24.0,60,-99.99,,,-99.99,,2013-03-02 00:01:00,
2013-03-01 14:11:00,73.0,59.0,30.13,NNE,30,18.0,24.0,60,0.00,,,-99.99,,2013-03-02 00:11:00,
2013-03-01 14:21:00,73.0,59.0,30.12,North,10,10.0,31.0,60,0.00,,,-99.99,,2013-03-02 00:21:00,
2013-03-01 14:31:00,73.0,57.0,30.11,NE,50,32.0,33.0,56,0.00,,,-99.99,,2013-03-02 00:31:00,
2013-03-01 14:41:00,73.0,57.0,30.12,NE,40,22.0,36.0,56,0.00,,,-99.99,,2013-03-02 00:41:00,
2013-03-01 14:51:00,73.0,57.0,30.12,NNE,30,22.0,31.0,56,0.00,,,-99.99,,2013-03-02 00:51:00,
2013-03-01 15:01:00,73.0,57.0,30.12,NNE,30,22.0,31.0,56,-99.99,,,-99.99,,2013-03-02 01:01:00,
2013-03-01 15:11:00,75.0,57.0,30.11,NE,40,22.0,28.0,53,0.00,,,-99.99,,2013-03-02 01:11:00,
2013-03-01 15:21:00,75.0,57.0,30.10,NE,40,20.0,37.0,53,0.00,,,-99.99,,2013-03-02 01:21:00,
2013-03-01 15:31:00,75.0,55.0,30.11,ENE,70,18.0,31.0,50,0.00,,,-99.99,,2013-03-02 01:31:00,
2013-03-01 15:41:00,75.0,55.0,30.10,NE,40,18.0,29.0,50,0.00,,,-99.99,,2013-03-02 01:41:00,
2013-03-01 15:51:00,75.0,55.0,30.10,NNE,30,18.0,28.0,50,0.00,,,-99.99,,2013-03-02 01:51:00,
2013-03-01 16:01:00,75.0,55.0,30.10,NNE,30,18.0,28.0,50,-99.99,,,-99.99,,2013-03-02 02:01:00,
2013-03-01 16:11:00,73.0,55.0,30.10,NNE,20,14.0,29.0,53,0.00,,,-99.99,,2013-03-02 02:11:00,
2013-03-01 16:21:00,73.0,55.0,30.10,East,80,17.0,28.0,53,0.00,,,-99.99,,2013-03-02 02:21:00,
2013-03-01 16:31:00,73.0,55.0,30.10,NE,40,28.0,30.0,53,0.00,,,-99.99,,2013-03-02 02:31:00,
2013-03-01 16:41:00,73.0,55.0,30.10,NE,50,20.0,30.0,53,0.00,,,-99.99,,2013-03-02 02:41:00,
2013-03-01 16:51:00,73.0,54.0,30.10,NE,50,22.0,33.0,49,0.00,,,-99.99,,2013-03-02 02:51:00,
2013-03-01 17:01:00,73.0,54.0,30.10,NE,50,22.0,33.0,49,-99.99,,,-99.99,,2013-03-02 03:01:00,
2013-03-01 17:11:00,73.0,55.0,30.10,NE,40,12.0,30.0,53,0.00,,,-99.99,,2013-03-02 03:11:00,
2013-03-01 17:21:00,73.0,55.0,30.10,NNE,30,17.0,25.0,53,0.00,,,-99.99,,2013-03-02 03:21:00,
2013-03-01 17:31:00,73.0,55.0,30.10,ENE,70,20.0,27.0,53,0.00,,,-99.99,,2013-03-02 03:31:00,
2013-03-01 17:41:00,72.0,55.0,30.10,NNE,30,14.0,28.0,56,0.00,,,-99.99,,2013-03-02 03:41:00,
2013-03-01 17:52:00,72.0,55.0,30.10,NE,40,22.0,29.0,56,0.00,,,-99.99,,2013-03-02 03:52:00,
2013-03-01 18:01:00,72.0,55.0,30.10,NE,40,22.0,29.0,56,-99.99,,,-99.99,,2013-03-02 04:01:00,
2013-03-01 18:11:00,72.0,55.0,30.11,NNE,30,30.0,30.0,56,0.00,,,-99.99,,2013-03-02 04:11:00,
2013-03-01 18:21:00,72.0,57.0,30.10,NE,40,9.0,23.0,60,0.00,,,-99.99,,2013-03-02 04:21:00,
2013-03-01 18:31:00,70.0,57.0,30.10,NE,40,16.0,24.0,64,0.00,,,-99.99,,2013-03-02 04:31:00,
2013-03-01 18:41:00,70.0,57.0,30.11,NE,40,15.0,24.0,64,0.00,,,-99.99,,2013-03-02 04:41:00,
2013-03-01 18:51:00,70.0,55.0,30.10,NE,40,16.0,28.0,60,-99.99,,,-99.99,,2013-03-02 04:51:00,
2013-03-01 19:01:00,70.0,55.0,30.10,NE,40,16.0,28.0,60,-99.99,,,-99.99,,2013-03-02 05:01:00,
2013-03-01 19:12:00,70.0,55.0,30.11,NE,40,16.0,24.0,60,-99.99,,,-99.99,,2013-03-02 05:12:00,
2013-03-01 19:22:00,68.0,55.0,30.11,NE,40,13.0,27.0,64,-99.99,,,-99.99,,2013-03-02 05:22:00,
2013-03-01 19:31:00,68.0,55.0,30.11,NE,50,21.0,30.0,64,-99.99,,,-99.99,,2013-03-02 05:31:00,
2013-03-01 19:41:00,68.0,55.0,30.12,NE,50,12.0,24.0,64,-99.99,,,-99.99,,2013-03-02 05:41:00,
2013-03-01 19:51:00,68.0,55.0,30.12,NE,40,14.0,18.0,64,-99.99,,,-99.99,,2013-03-02 05:51:00,
2013-03-01 20:01:00,68.0,55.0,30.12,NE,40,14.0,18.0,64,-99.99,,,-99.99,,2013-03-02 06:01:00,
2013-03-01 20:11:00,68.0,55.0,30.12,NE,50,10.0,24.0,64,-99.99,,,-99.99,,2013-03-02 06:11:00,
2013-03-01 20:21:00,68.0,55.0,30.13,ENE,70,9.0,24.0,64,-99.99,,,-99.99,,2013-03-02 06:21:00,
2013-03-01 20:31:00,68.0,55.0,30.13,ENE,60,10.0,18.0,64,-99.99,,,-99.99,,2013-03-02 06:31:00,
2013-03-01 20:41:00,68.0,55.0,30.14,NE,40,9.0,16.0,64,-99.99,,,-99.99,,2013-03-02 06:41:00,
2013-03-01 20:51:00,68.0,57.0,30.14,NE,40,7.0,20.0,68,-99.99,,,-99.99,,2013-03-02 06:51:00,
2013-03-01 21:01:00,68.0,57.0,30.14,NE,40,7.0,20.0,68,-99.99,,,-99.99,,2013-03-02 07:01:00,
2013-03-01 21:11:00,68.0,55.0,30.14,ENE,60,7.0,21.0,64,-99.99,,,-99.99,,2013-03-02 07:11:00,
2013-03-01 21:21:00,68.0,57.0,30.15,NNE,30,12.0,22.0,68,-99.99,,,-99.99,,2013-03-02 07:21:00,
2013-03-01 21:31:00,68.0,57.0,30.15,ENE,60,13.0,25.0,68,-99.99,,,-99.99,,2013-03-02 07:31:00,
2013-03-01 21:41:00,68.0,57.0,30.15,ENE,70,10.0,25.0,68,-99.99,,,-99.99,,2013-03-02 07:41:00,
2013-03-01 21:51:00,68.0,57.0,30.15,NE,40,13.0,22.0,68,-99.99,,,-99.99,,2013-03-02 07:51:00,
2013-03-01 22:01:00,68.0,57.0,30.15,NE,40,13.0,22.0,68,-99.99,,,-99.99,,2013-03-02 08:01:00,
2013-03-01 22:11:00,68.0,57.0,30.15,NE,50,20.0,23.0,68,-99.99,,,-99.99,,2013-03-02 08:11:00,
2013-03-01 22:21:00,68.0,55.0,30.16,ENE,60,15.0,24.0,64,-99.99,,,-99.99,,2013-03-02 08:21:00,
2013-03-01 22:31:00,68.0,55.0,30.16,NE,50,15.0,21.0,64,-99.99,,,-99.99,,2013-03-02 08:31:00,
2013-03-01 22:42:00,68.0,55.0,30.16,ENE,60,15.0,21.0,64,-99.99,,,-99.99,,2013-03-02 08:42:00,
2013-03-01 22:52:00,68.0,55.0,30.16,North,10,10.0,-999.0,64,-99.99,,,-99.99,,2013-03-02 08:52:00,
2013-03-01 23:01:00,68.0,55.0,30.16,North,10,10.0,-999.0,64,-99.99,,,-99.99,,2013-03-02 09:01:00,
2013-03-01 23:11:00,68.0,55.0,30.16,NE,50,24.0,25.0,64,-99.99,,,-99.99,,2013-03-02 09:11:00,
2013-03-01 23:21:00,68.0,55.0,30.16,NE,40,14.0,29.0,64,-99.99,,,-99.99,,2013-03-02 09:21:00,
2013-03-01 23:31:00,68.0,55.0,30.16,ENE,60,21.0,24.0,64,-99.99,,,-99.99,,2013-03-02 09:31:00,
2013-03-01 23:42:00,68.0,55.0,30.16,ENE,60,15.0,24.0,64,-99.99,,,-99.99,,2013-03-02 09:42:00,
2013-03-01 23:51:00,68.0,55.0,30.16,ENE,60,13.0,23.0,64,-99.99,,,-99.99,,2013-03-02 09:51:00,